Weather History for Delta, CO

Change the Weather History Date:

Tuesday, August 13, 2013

  Actual Average (KMTJ) Record (KMTJ)
Temperature  
Mean Temperature 73 °F 72 °F  
Max Temperature 91 °F 87 °F 97 °F (1996)
Min Temperature 55 °F 57 °F 50 °F (1997)
Degree Days  
Heating Degree Days 0 0  
Month to date heating degree days 0  
Since 1 June heating degree days 39  
Since 1 July heating degree days 0  
Cooling Degree Days 8 7  
Month to date cooling degree days 97  
Year to date cooling degree days 519  
Since 1 June cooling degree days 502  
Growing Degree Days 23 (Base 50)    
Moisture  
Dew Point 42 °F    
Average Humidity 39    
Maximum Humidity 71    
Minimum Humidity 11    
Precipitation  
Precipitation 0.00 in 0.04 in 0.39 in (2001)
Month to date precipitation 0.54  
Year to date precipitation 6.61  
Sea Level Pressure  
Sea Level Pressure 30.22 in    
Wind  
Wind Speed 6 mph (ENE)    
Max Wind Speed 15 mph    
Max Gust Speed 21 mph    
Visibility 10 miles    
Events      
T = Trace of Precipitation, MM = Missing Value Source: NWS Daily Summary

Daily Weather History Graph

Daily Weather History Graph

Search for Another Location

Airport:

Trip Planner

Search our weather history database for the weather conditions in past years. The results will help you decide how hot, cold, wet, or windy it might be!

Date:

Astronomy

Aug. 13, 2013 Rise Set
Actual Time 6:24 AM MDT 8:08 PM MDT
Civil Twilight 5:55 AM MDT 8:37 PM MDT
Nautical Twilight 5:21 AM MDT 9:11 PM MDT
Astronomical Twilight 4:44 AM MDT 9:48 PM MDT
Moon 1:17 PM MDT (8/13) 11:51 PM MDT (8/13)
Length of Visible Light 14h 41m
Length of Day
13h 44m
Waxing Crescent, 42% of the Moon is Illuminated
Aug 13
Waxing Crescent
Aug 14
First Quarter
Aug 20
Full
Aug 28
Last Quarter
Sep 5
New

Hourly Weather History & Observations

Time (MDT) Temp. Dew Point Humidity Pressure Visibility Wind Dir Wind Speed Gust Speed Precip Events Conditions
12:15 AM 66.2 °F 47.5 °F 51% 30.23 in 10.0 mi NE 9.2 mph - N/A   Clear
12:35 AM 66.2 °F 47.3 °F 51% 30.23 in 10.0 mi ENE 10.4 mph - N/A   Clear
12:55 AM 64.8 °F 47.3 °F 53% 30.23 in 10.0 mi ENE 6.9 mph - N/A   Clear
1:15 AM 62.4 °F 47.1 °F 57% 30.23 in 10.0 mi NE 5.8 mph - N/A   Clear
1:35 AM 61.9 °F 45.5 °F 55% 30.23 in 10.0 mi ENE 6.9 mph - N/A   Clear
1:55 AM 61.2 °F 44.8 °F 55% 30.23 in 10.0 mi ENE 8.1 mph - N/A   Clear
2:15 AM 61.5 °F 43.9 °F 52% 30.23 in 10.0 mi East 8.1 mph - N/A   Clear
2:35 AM 61.9 °F 45.3 °F 55% 30.23 in 10.0 mi ENE 8.1 mph - N/A   Clear
2:55 AM 61.2 °F 46.4 °F 58% 30.23 in 10.0 mi ENE 6.9 mph - N/A   Clear
3:15 AM 59.9 °F 45.7 °F 59% 30.23 in 10.0 mi ENE 5.8 mph - N/A   Clear
3:35 AM 59.7 °F 46.2 °F 61% 30.23 in 10.0 mi NE 5.8 mph - N/A   Clear
3:55 AM 59.4 °F 45.9 °F 61% 30.24 in 10.0 mi ENE 6.9 mph - N/A   Clear
4:15 AM 59.2 °F 46.2 °F 62% 30.24 in 10.0 mi ENE 5.8 mph - N/A   Clear
4:35 AM 58.1 °F 46.4 °F 65% 30.25 in 10.0 mi Calm Calm - N/A   Clear
4:55 AM 56.3 °F 46.8 °F 70% 30.25 in 10.0 mi Calm Calm - N/A   Clear
5:15 AM 55.8 °F 46.4 °F 71% 30.24 in 10.0 mi NE 6.9 mph - N/A   Clear
5:35 AM 57.2 °F 46.0 °F 66% 30.25 in 10.0 mi NE 6.9 mph - N/A   Clear
5:55 AM 57.2 °F 46.2 °F 67% 30.26 in 10.0 mi NE 6.9 mph - N/A   Clear
6:15 AM 57.2 °F 46.4 °F 67% 30.27 in 10.0 mi NE 5.8 mph - N/A   Clear
6:35 AM 55.6 °F 46.2 °F 71% 30.28 in 7.0 mi NNE 8.1 mph - N/A   Clear
6:55 AM 57.4 °F 46.6 °F 67% 30.28 in 10.0 mi NNE 5.8 mph - N/A   Clear
7:15 AM 59.7 °F 46.6 °F 62% 30.28 in 10.0 mi Calm Calm - N/A   Clear
7:35 AM 60.8 °F 45.9 °F 58% 30.29 in 10.0 mi East 4.6 mph - N/A   Clear
7:55 AM 61.2 °F 46.0 °F 58% 30.30 in 7.0 mi ENE 6.9 mph - N/A   Clear
8:15 AM 63.0 °F 46.4 °F 55% 30.30 in 7.0 mi East 3.5 mph - N/A   Clear
8:35 AM 64.4 °F 46.6 °F 52% 30.30 in 10.0 mi ESE 4.6 mph - N/A   Clear
8:55 AM 65.5 °F 46.9 °F 51% 30.30 in 10.0 mi Calm Calm - N/A   Clear
9:15 AM 66.4 °F 46.9 °F 50% 30.30 in 10.0 mi East 3.5 mph - N/A   Clear
9:35 AM 68.0 °F 47.3 °F 47% 30.29 in 10.0 mi Calm Calm - N/A   Clear
9:55 AM 69.4 °F 46.4 °F 44% 30.29 in 10.0 mi Calm Calm - N/A   Clear
10:15 AM 71.6 °F 44.8 °F 38% 30.29 in 10.0 mi Calm Calm - N/A   Clear
10:35 AM 72.7 °F 44.8 °F 37% 30.29 in 10.0 mi SSE 3.5 mph - N/A   Clear
10:55 AM 74.5 °F 45.9 °F 36% 30.29 in 10.0 mi Calm Calm - N/A   Clear
11:15 AM 76.1 °F 46.4 °F 35% 30.28 in 10.0 mi Calm Calm - N/A   Clear
11:35 AM 77.5 °F 44.8 °F 31% 30.27 in 10.0 mi Calm Calm - N/A   Clear
11:55 AM 80.1 °F 43.3 °F 27% 30.26 in 10.0 mi South 3.5 mph - N/A   Clear
12:15 PM 80.6 °F 43.5 °F 27% 30.25 in 10.0 mi SSE 4.6 mph - N/A   Clear
12:35 PM 81.1 °F 44.4 °F 27% 30.24 in 7.0 mi South 5.8 mph - N/A   Clear
12:55 PM 82.2 °F 44.4 °F 26% 30.23 in 7.0 mi SSW 6.9 mph - N/A   Clear
1:15 PM 83.1 °F 44.1 °F 25% 30.23 in 10.0 mi South 4.6 mph - N/A   Clear
1:35 PM 84.4 °F 46.4 °F 26% 30.22 in 10.0 mi South 5.8 mph - N/A   Clear
1:55 PM 85.5 °F 45.5 °F 25% 30.21 in 7.0 mi SSW 6.9 mph - N/A   Clear
2:15 PM 87.6 °F 43.9 °F 22% 30.21 in 10.0 mi South 9.2 mph - N/A   Clear
2:35 PM 88.0 °F 42.3 °F 20% 30.20 in 10.0 mi Calm Calm - N/A   Clear
2:55 PM 88.7 °F 41.9 °F 19% 30.19 in 7.0 mi South 8.1 mph - N/A   Clear
3:15 PM 90.0 °F 40.5 °F 18% 30.18 in 10.0 mi SSW 6.9 mph 17.3 mph N/A   Clear
3:35 PM 90.7 °F 38.3 °F 16% 30.18 in 10.0 mi SW 6.9 mph - N/A   Clear
3:55 PM 89.8 °F 34.3 °F 14% 30.17 in 10.0 mi SW 4.6 mph 20.7 mph N/A   Clear
4:15 PM 90.5 °F 33.8 °F 13% 30.17 in 10.0 mi WSW 11.5 mph - N/A   Clear
4:35 PM 91.4 °F 34.2 °F 13% 30.16 in 10.0 mi WSW 9.2 mph 17.3 mph N/A   Clear
4:55 PM 90.7 °F 32.5 °F 13% 30.15 in 10.0 mi West 6.9 mph 18.4 mph N/A   Scattered Clouds
5:55 PM 90.1 °F 30.2 °F 12% 30.15 in 10.0 mi WNW 10.4 mph - N/A   Clear
6:15 PM 90.5 °F 29.3 °F 11% 30.14 in 10.0 mi WNW 15.0 mph 18.4 mph N/A   Clear
6:35 PM 89.8 °F 28.2 °F 11% 30.14 in 10.0 mi NW 9.2 mph 18.4 mph N/A   Clear
6:55 PM 89.4 °F 28.2 °F 11% 30.14 in 7.0 mi WNW 6.9 mph - N/A   Clear
7:15 PM 88.3 °F 27.9 °F 11% 30.14 in 10.0 mi NW 10.4 mph - N/A   Clear
7:35 PM 85.6 °F 32.2 °F 15% 30.14 in 10.0 mi North 9.2 mph - N/A   Clear
7:55 PM 82.4 °F 34.2 °F 18% 30.15 in 7.0 mi NNE 10.4 mph - N/A   Clear
8:15 PM 80.1 °F 37.0 °F 21% 30.15 in 7.0 mi North 8.1 mph - N/A   Clear
8:35 PM 79.9 °F 35.2 °F 20% 30.15 in 10.0 mi North 8.1 mph - N/A   Clear
8:55 PM 78.3 °F 34.7 °F 21% 30.16 in 10.0 mi NE 5.8 mph - N/A   Clear
9:15 PM 76.5 °F 36.1 °F 23% 30.16 in 7.0 mi East 8.1 mph - N/A   Clear
9:35 PM 73.8 °F 36.3 °F 26% 30.17 in 10.0 mi East 4.6 mph - N/A   Clear
9:55 PM 72.3 °F 38.1 °F 29% 30.18 in 10.0 mi SW 3.5 mph - N/A   Clear
10:15 PM 71.1 °F 37.8 °F 30% 30.19 in 10.0 mi Calm Calm - N/A   Clear
10:35 PM 68.4 °F 42.3 °F 39% 30.19 in 10.0 mi North 5.8 mph - N/A   Clear
10:55 PM 68.2 °F 41.4 °F 38% 30.19 in 10.0 mi Calm Calm - N/A   Clear
11:15 PM 68.0 °F 40.1 °F 36% 30.19 in 10.0 mi NNE 3.5 mph - N/A   Clear
11:35 PM 66.2 °F 39.9 °F 38% 30.19 in 7.0 mi ENE 5.8 mph - N/A   Clear
11:55 PM 68.4 °F 40.3 °F 36% 30.20 in 10.0 mi NE 9.2 mph - N/A   Clear